"2009-01-12 00:00:00",533157,8.41,320.3,4.501,1.512,7.539,101.2958,2.606,3.856,32.21,0,109.7,13.5,3.37,282.3
"2009-01-12 00:00:30",533158,8.2,312.9,12.75,1.315,7.581,101.3252,2.681,3.771,30.68,0,109.7,13.49,3.44,274.9
"2009-01-12 00:01:00",533159,8.68,317.8,7.291,0.935,7.708,101.3606,2.771,3.777,30.55,0,109.7,13.5,3.53,279.8
"2009-01-12 00:01:30",533160,7.656,322.9,6.82,1.341,7.228,101.3968,2.863,3.861,30.28,0,109.7,13.5,3.63,284.9
"2009-01-12 00:02:00",533161,8.21,314.7,5.682,1.236,7.497,101.4356,2.962,3.95,29.73,0,109.7,13.5,3.72,276.7
"2009-01-12 00:02:30",533162,8.44,319.8,6.135,1.138,7.645,101.4704,3.051,4.035,30.14,0,109.7,13.5,3.81,281.8
"2009-01-12 00:03:00",533163,7.711,322.7,6.013,1.162,7.319,101.4755,3.064,4.085,30.42,0,109.7,13.5,3.83,284.7
"2009-01-12 00:03:30",533164,9.1,321.5,9.74,0.998,8.08,101.4806,3.077,4.131,29.86,0,109.7,13.5,3.84,283.5
"2009-01-12 00:04:00",533165,8.63,313.6,7.478,1.496,6.861,101.5044,3.138,4.122,29.46,0,109.7,13.5,3.90,275.6
"2009-01-12 00:04:30",533166,8.47,314.7,5.945,0.996,7.488,101.5115,3.156,4.164,30,0,109.7,13.5,3.92,276.7
"2009-01-12 00:05:00",533167,9.64,318.2,6.17,1.237,7.518,101.51,3.152,4.185,29.85,0,109.7,13.5,3.92,280.2
"2009-01-12 00:05:30",533168,11.4,320.9,4.42,0.757,8.74,101.5152,3.166,4.29,29.42,0,109.7,13.5,3.93,282.9
"2009-01-12 00:06:00",533169,9.23,322.1,4.276,0.709,8.45,101.5294,3.202,4.293,29.56,0,109.7,13.5,3.97,284.1
"2009-01-12 00:06:30",533170,9.03,327.1,4.559,0.954,8.02,101.5305,3.205,4.339,30.08,0,109.7,13.49,3.97,289.1
"2009-01-12 00:07:00",533171,7.954,310.5,12.61,1.239,6.308,101.5175,3.171,4.199,30.32,0,109.7,13.49,3.93,272.5
"2009-01-12 00:07:30",533172,6.944,313.8,7.52,1.11,5.838,101.5003,3.127,4.218,30.86,0,109.7,13.49,3.89,275.8
"2009-01-12 00:08:00",533173,6.15,311.4,5.336,1.201,5.213,101.4839,3.086,4.152,30.5,0,109.7,13.49,3.85,273.4
"2009-01-12 00:08:30",533174,8.05,315.8,6.601,1.475,7.135,101.4805,3.077,4.211,30.34,0,109.7,13.49,3.84,277.8
"2009-01-12 00:09:00",533175,8.38,318.1,4.881,0.616,7.836,101.4686,3.047,4.247,30.53,0,109.7,13.49,3.81,280.1
"2009-01-12 00:09:30",533176,7.649,312.6,5.392,1.135,7.373,101.4548,3.011,4.204,30.77,0,109.7,13.49,3.77,274.6
"2009-01-12 00:10:00",533177,8.22,316.4,5.511,1.121,7.196,101.4554,3.013,4.075,30.34,0,109.7,13.49,3.78,278.4
"2009-01-12 00:10:30",533178,9.47,313.4,8.46,0.76,6.533,101.4727,3.057,4.081,28.71,0,109.7,13.49,3.82,275.4
"2009-01-12 00:11:00",533179,8.7,316,8.67,1.175,7.15,101.5032,3.135,4.143,28.91,0,109.7,13.5,3.90,278.0
"2009-01-12 00:11:30",533180,8.17,317.8,6.199,0.816,8.16,101.5244,3.189,4.305,29.57,0,109.7,13.5,3.95,279.8
"2009-01-12 00:12:00",533181,9.45,322.1,4.385,0.888,8.31,101.527,3.196,4.312,29.69,0,109.7,13.5,3.96,284.1
"2009-01-12 00:12:30",533182,9.21,322.2,5.711,1.06,7.685,101.5275,3.197,4.295,29.03,0,109.7,13.5,3.96,284.2
"2009-01-12 00:13:00",533183,8.89,323.6,6.688,1.027,7.954,101.5527,3.261,4.345,28.66,0,109.7,13.5,4.02,285.6
"2009-01-12 00:13:30",533184,7.303,310.9,6.75,1.055,6.293,101.5609,3.282,4.269,28.92,0,109.7,13.5,4.05,272.9
"2009-01-12 00:14:00",533185,7.253,309.3,5.933,1.222,6.385,101.5671,3.298,4.275,28.9,0,109.7,13.5,4.06,271.3
"2009-01-12 00:14:30",533186,7.592,312.7,6.285,1.219,7.022,101.583,3.339,4.352,28.92,0,109.7,13.5,4.10,274.7
"2009-01-12 00:15:00",533187,8.36,314.8,6.647,1.175,7.918,101.5943,3.367,4.467,29.01,0,109.7,13.5,4.13,276.8
"2009-01-12 00:15:30",533188,7.498,309.4,6.36,1.267,6.659,101.5948,3.369,4.451,29.12,0,109.7,13.5,4.13,271.4
"2009-01-12 00:16:00",533189,7.645,313,5.086,1.199,7.632,101.5948,3.369,4.423,28.95,0,109.7,13.5,4.13,275.0
"2009-01-12 00:16:30",533190,7.785,315.7,6.674,1.103,7.029,101.6129,3.415,4.401,28.4,0,109.7,13.5,4.18,277.7
"2009-01-12 00:17:00",533191,7.252,312.2,6.749,1.199,6.386,101.6288,3.455,4.435,28.73,0,109.7,13.5,4.22,274.2
"2009-01-12 00:17:30",533192,7.323,320.3,6.44,1.147,7.102,101.6288,3.455,4.513,29.06,0,109.7,13.51,4.22,282.3
"2009-01-12 00:18:00",533193,6.964,325,7.059,1.029,7.501,101.6288,3.455,4.528,28.75,0,109.7,13.51,4.22,287.0
"2009-01-12 00:18:30",533194,6.891,321.2,5.311,0.996,7.236,101.6288,3.455,4.533,28.36,0,109.7,13.51,4.22,283.2
"2009-01-12 00:19:00",533195,6.696,320.1,5.391,1.172,7.236,101.6432,3.492,4.561,28.17,0,109.7,13.51,4.26,282.1
"2009-01-12 00:19:30",533196,6.933,316.4,5.84,1.052,7.368,101.659,3.533,4.507,28.35,0,109.7,13.51,4.30,278.4
"2009-01-12 00:20:00",533197,6.749,313.8,6.48,1.397,6.741,101.6486,3.506,4.531,28.69,0,109.8,13.51,4.27,275.8
"2009-01-12 00:20:30",533198,6.879,314.2,6.653,1.183,6.923,101.6415,3.488,4.604,28.72,0,109.7,13.51,4.25,276.2
"2009-01-12 00:21:00",533199,6.278,312.2,8.07,1.195,6.544,101.6305,3.46,4.487,28.86,0,109.7,13.51,4.22,274.2
"2009-01-12 00:21:30",533200,6.672,312.8,10.01,1.203,6.604,101.6291,3.456,4.522,29.11,0,109.7,13.51,4.22,274.8
"2009-01-12 00:22:00",533201,6.95,311.1,7.709,1.236,6.872,101.6164,3.424,4.594,29.09,0,109.7,13.51,4.19,273.1
"2009-01-12 00:22:30",533202,7.075,306.1,7.104,1.179,7.535,101.6033,3.391,4.551,28.88,0,109.7,13.51,4.15,268.1
"2009-01-12 00:23:00",533203,7.6,305.3,6.656,1.216,6.971,101.611,3.41,4.515,28.59,0,109.7,13.5,4.17,267.3
"2009-01-12 00:23:30",533204,7.411,309.2,5.535,0.968,7.689,101.619,3.43,4.547,28.64,0,109.7,13.5,4.19,271.2
"2009-01-12 00:24:00",533205,5.634,305.9,12.25,1.453,5.638,101.6161,3.423,4.509,28.85,0,109.7,13.5,4.19,267.9
"2009-01-12 00:24:30",533206,7.559,311.4,8.14,1.186,7.035,101.6159,3.423,4.573,28.78,0,109.6,13.5,4.19,273.4
"2009-01-12 00:25:00",533207,7.605,308.5,8.59,0.901,7.248,101.6207,3.435,4.434,28.32,0,109.7,13.5,4.20,270.5
"2009-01-12 00:25:30",533208,7.117,293.4,6.683,1.302,6.632,101.6137,3.417,4.583,29.36,0,109.7,13.5,4.18,255.4
"2009-01-12 00:26:00",533209,7.843,294.4,6.376,1.028,7.308,101.5993,3.38,4.513,29.63,0,109.7,13.51,4.14,256.4
"2009-01-12 00:26:30",533210,8.51,298.9,7.952,1.181,6.767,101.5868,3.348,4.495,29.09,0,109.7,13.5,4.11,260.9
"2009-01-12 00:27:00",533211,8.91,303.4,6.239,1.212,7.724,101.5909,3.359,4.517,28.88,0,109.7,13.51,4.12,265.4
"2009-01-12 00:27:30",533212,7.938,302.8,6.652,1.115,6.567,101.5937,3.366,4.515,28.72,0,109.7,13.51,4.13,264.8
"2009-01-12 00:28:00",533213,8.57,305.6,5.728,1.021,7.462,101.6098,3.407,4.493,28.33,0,109.7,13.51,4.17,267.6
"2009-01-12 00:28:30",533214,8.49,306.3,5.899,1.199,7.398,101.6118,3.412,4.579,28.19,0,109.7,13.51,4.18,268.3
"2009-01-12 00:29:00",533215,8.05,305.3,6.224,1.196,7.064,101.6217,3.437,4.502,28.07,0,109.7,13.51,4.20,267.3
"2009-01-12 00:29:30",533216,8.4,305,6.719,1.033,7.45,101.6381,3.479,4.523,27.98,0,109.7,13.51,4.24,267.0
"2009-01-12 00:30:00",533217,8.65,304.7,5.498,1.026,7.993,101.6483,3.505,4.611,27.98,0,109.7,13.51,4.27,266.7
"2009-01-12 00:30:30",533218,8.72,306,6.823,1.286,7.162,101.6506,3.511,4.559,27.87,0,109.7,13.51,4.28,268.0
"2009-01-12 00:31:00",533219,9.33,309.9,4.997,0.93,8.25,101.6594,3.534,4.654,27.75,0,109.7,13.51,4.30,271.9
"2009-01-12 00:31:30",533220,8.94,306.6,5.524,1.166,7.366,101.671,3.563,4.66,27.68,0,109.7,13.51,4.33,268.6
"2009-01-12 00:32:00",533221,7.753,308.1,5.678,1.561,6.937,101.6849,3.599,4.637,27.49,0,109.7,13.51,4.36,270.1
"2009-01-12 00:32:30",533222,7.611,308.3,6.473,1.255,7.298,101.686,3.602,4.651,27.35,0,109.7,13.51,4.37,270.3
"2009-01-12 00:33:00",533223,7.269,310.3,5.323,1.175,7.755,101.692,3.617,4.664,27.26,0,109.7,13.51,4.38,272.3
"2009-01-12 00:33:30",533224,7.453,306.3,5.745,1.134,7.536,101.7143,3.674,4.717,27.26,0,109.7,13.51,4.44,268.3
"2009-01-12 00:34:00",533225,7.486,306.3,6.739,1.195,7.108,101.7219,3.693,4.695,26.9,0,109.7,13.51,4.46,268.3
"2009-01-12 00:34:30",533226,8.85,307.9,5.993,1.421,7.37,101.7381,3.734,4.821,26.68,0,109.7,13.51,4.50,269.9
"2009-01-12 00:35:00",533227,8.91,314.8,5.505,1.109,7.931,101.7562,3.781,4.75,26.4,0,109.7,13.51,4.55,276.8
"2009-01-12 00:35:30",533228,8,310.8,8.47,1.169,7.439,101.7584,3.786,4.831,26.62,0,109.7,13.52,4.55,272.8
"2009-01-12 00:36:00",533229,8.18,304.3,5.435,1.083,7.995,101.7712,3.819,4.87,26.89,0,109.7,13.51,4.58,266.3
"2009-01-12 00:36:30",533230,8.5,308.2,4.19,0.994,8.59,101.7726,3.823,4.895,26.81,0,109.7,13.52,4.59,270.2
"2009-01-12 00:37:00",533231,8.04,305.4,7.677,1.4,6.978,101.7717,3.82,4.898,26.84,0,109.7,13.51,4.59,267.4
"2009-01-12 00:37:30",533232,8.08,307.1,7.061,1.152,7.656,101.7751,3.829,4.879,26.64,0,109.7,13.51,4.59,269.1
"2009-01-12 00:38:00",533233,7.089,305.1,6.256,1.469,6.088,101.7791,3.839,4.76,26.61,0,109.7,13.52,4.60,267.1
"2009-01-12 00:38:30",533234,7.994,305.6,5.447,1.046,7.453,101.7709,3.818,4.884,27.25,0,109.7,13.51,4.58,267.6
"2009-01-12 00:39:00",533235,7.586,303.9,5.163,1.15,7.595,101.7579,3.785,4.914,27.4,0,109.7,13.52,4.55,265.9
"2009-01-12 00:39:30",533236,7.02,298.6,5.688,1.206,7.422,101.7494,3.763,4.829,27.73,0,109.7,13.52,4.53,260.6
"2009-01-12 00:40:00",533237,7.113,304.3,4.749,1.135,7.245,101.724,3.698,4.854,27.91,0,109.7,13.51,4.46,266.3
"2009-01-12 00:40:30",533238,5.914,302.7,4.839,1.036,5.193,101.7197,3.688,4.647,27.67,0,109.7,13.52,4.45,264.7
"2009-01-12 00:41:00",533239,5.959,301.4,6.436,1.168,5.639,101.7013,3.641,4.715,27.71,0,109.7,13.52,4.41,263.4
"2009-01-12 00:41:30",533240,6.492,300.2,6.759,1.186,7.048,101.6909,3.614,4.804,27.99,0,109.7,13.51,4.38,262.2
"2009-01-12 00:42:00",533241,6.638,298.2,6.068,1.255,7.339,101.6903,3.613,4.806,27.99,0,109.7,13.51,4.38,260.2
"2009-01-12 00:42:30",533242,8.89,307.6,6.687,1.123,8.49,101.6897,3.611,4.775,27.57,0,109.7,13.51,4.38,269.6
"2009-01-12 00:43:00",533243,8.25,301.1,8.48,0.99,7.273,101.6971,3.63,4.777,26.73,0,109.7,13.51,4.39,263.1
"2009-01-12 00:43:30",533244,8.68,300.7,7.511,1.773,7.199,101.7217,3.693,4.76,27.05,0,109.7,13.51,4.46,262.7
"2009-01-12 00:44:00",533245,7.726,291.3,6.068,1.206,6.129,101.7095,3.662,4.716,27.63,0,109.7,13.51,4.43,253.3
"2009-01-12 00:44:30",533246,7.959,296.8,6.91,1.031,7.338,101.6951,3.625,4.707,27.51,0,109.7,13.52,4.39,258.8
"2009-01-12 00:45:00",533247,7.782,301.9,5.012,1.269,8.06,101.7121,3.668,4.842,27.21,0,109.7,13.52,4.43,263.9
"2009-01-12 00:45:30",533248,7.781,304.5,6.214,1.155,7.483,101.7158,3.677,4.763,27.24,0,109.7,13.52,4.44,266.5
"2009-01-12 00:46:00",533249,7.246,305.4,5.899,1.218,6.613,101.7251,3.701,4.751,26.88,0,109.7,13.52,4.47,267.4
"2009-01-12 00:46:30",533250,6.973,307,7.905,1.189,6.151,101.7254,3.702,4.701,26.54,0,109.7,13.52,4.47,269.0
"2009-01-12 00:47:00",533251,7.458,303.7,6.616,1.201,6.699,101.7384,3.735,4.777,26.74,0,109.7,13.52,4.50,265.7
"2009-01-12 00:47:30",533252,7.506,307.5,5.678,1.173,7.315,101.7497,3.764,4.876,26.86,0,109.7,13.53,4.53,269.5
"2009-01-12 00:48:00",533253,8.74,307.6,5.643,0.611,8.9,101.7585,3.787,4.897,26.88,0,109.7,13.52,4.55,269.6
"2009-01-12 00:48:30",533254,7.901,309.2,7.022,1.166,7.864,101.754,3.775,4.86,26.88,0,109.7,13.52,4.54,271.2
"2009-01-12 00:49:00",533255,6.984,308.8,8.81,1.127,5.718,101.7622,3.796,4.769,26.42,0,109.7,13.52,4.56,270.8
"2009-01-12 00:49:30",533256,7.456,309,7.279,1.119,6.06,101.7608,3.792,4.765,26.45,0,109.7,13.52,4.56,271.0
"2009-01-12 00:50:00",533257,8.46,311.1,7.605,1.448,7.386,101.7616,3.795,4.904,26.58,0,109.6,13.53,4.56,273.1
"2009-01-12 00:50:30",533258,9.03,318.7,3.783,0.758,8.93,101.7625,3.797,4.917,26.5,0,109.7,13.53,4.56,280.7
"2009-01-12 00:51:00",533259,9.21,316.9,3.803,0.863,9.18,101.7713,3.819,4.986,26.57,0,109.7,13.52,4.58,278.9
"2009-01-12 00:51:30",533260,8.77,309.6,8.17,0.886,8.11,101.7775,3.835,4.925,26.6,0,109.7,13.53,4.60,271.6
"2009-01-12 00:52:00",533261,8.84,306.3,5.907,1.271,7.227,101.7803,3.842,4.832,26.56,0,109.7,13.52,4.61,268.3
"2009-01-12 00:52:30",533262,7.279,301.3,5.728,1.231,6.444,101.7803,3.842,4.789,26.48,0,109.7,13.52,4.61,263.3
"2009-01-12 00:53:00",533263,8.84,306.2,6.526,1.315,6.87,101.7735,3.825,4.847,26.71,0,109.7,13.53,4.59,268.2
"2009-01-12 00:53:30",533264,8.61,313.2,4.601,1.021,7.703,101.7639,3.8,4.956,26.87,0,109.7,13.53,4.57,275.2
"2009-01-12 00:54:00",533265,10.23,316.3,4.543,0.994,8.76,101.7616,3.795,5.002,26.96,0,109.7,13.53,4.56,278.3
"2009-01-12 00:54:30",533266,9.19,316,3.066,0.818,8.76,101.7634,3.799,4.953,27.05,0,109.7,13.53,4.56,278.0
"2009-01-12 00:55:00",533267,8.52,305.6,7.057,1.538,6.473,101.7634,3.799,4.931,27.04,0,109.7,13.52,4.56,267.6
"2009-01-12 00:55:30",533268,9.09,318.5,8.13,1.295,7.375,101.7631,3.798,4.876,26.99,0,109.7,13.52,4.56,280.5
"2009-01-12 00:56:00",533269,8.48,316,9.89,1.578,6.159,101.7529,3.772,4.8,27.11,0,109.7,13.52,4.54,278.0
"2009-01-12 00:56:30",533270,9.52,314.3,5.773,0.961,8.68,101.7317,3.718,4.958,27.38,0,109.7,13.52,4.48,276.3
"2009-01-12 00:57:00",533271,9.49,318.1,5.056,1.086,8.12,101.7291,3.712,4.891,27.46,0,109.7,13.52,4.48,280.1
"2009-01-12 00:57:30",533272,8.43,310,6.871,1.064,8.26,101.7266,3.705,4.863,27.55,0,109.7,13.52,4.47,272.0
"2009-01-12 00:58:00",533273,10.98,314.3,6.482,1.374,8.47,101.7068,3.655,4.857,27.53,0,109.7,13.52,4.42,276.3
"2009-01-12 00:58:30",533274,10.32,306.9,5.863,1.239,6.984,101.698,3.632,4.748,27.64,0,109.7,13.52,4.40,268.9
"2009-01-12 00:59:00",533275,10.62,305.9,6.802,1.163,7.72,101.6961,3.627,4.809,27.78,0,109.7,13.52,4.39,267.9
"2009-01-12 00:59:30",533276,10.75,302.7,5.196,0.794,8.6,101.6944,3.623,4.807,27.95,0,109.7,13.52,4.39,264.7
"2009-01-12 01:00:00",533277,11.9,306.8,3.577,0.712,9.3,101.6915,3.616,4.811,27.29,0,109.7,13.52,4.38,268.8
"2009-01-12 01:00:30",533278,10.68,302.1,4.98,1.176,8.48,101.6969,3.629,4.828,27.24,0,109.7,13.52,4.39,264.1
"2009-01-12 01:01:00",533279,11.57,308.8,5.807,0.95,9.03,101.7156,3.677,4.862,26.88,0,109.7,13.52,4.44,270.8
"2009-01-12 01:01:30",533280,12.33,308.9,3.406,0.938,8.79,101.7467,3.756,4.901,26.44,0,109.7,13.52,4.52,270.9
"2009-01-12 01:02:00",533281,12.82,313.6,4.859,0.693,8.4,101.7648,3.803,4.925,26.88,0,109.7,13.52,4.57,275.6
"2009-01-12 01:02:30",533282,12.4,316.5,4.576,0.819,7.992,101.7639,3.801,4.965,27.76,0,109.7,13.52,4.57,278.5
"2009-01-12 01:03:00",533283,12.96,313.7,3.383,0.848,8.01,101.7577,3.785,4.955,27.9,0,109.7,13.52,4.55,275.7
"2009-01-12 01:03:30",533284,12.3,316.2,4.327,0.585,7.932,101.734,3.724,4.916,28.03,0,109.7,13.52,4.49,278.2
"2009-01-12 01:04:00",533285,12.06,317.8,4.135,0.786,8.33,101.7283,3.709,4.929,28.09,0,109.7,13.52,4.47,279.8
"2009-01-12 01:04:30",533286,11.82,320.1,3.107,0.79,8.59,101.7294,3.712,4.897,27.19,0,109.7,13.52,4.48,282.1
"2009-01-12 01:05:00",533287,11.06,318,4.222,0.558,9.03,101.7461,3.755,4.912,26.52,0,109.7,13.52,4.52,280.0
"2009-01-12 01:05:30",533288,12.06,320.2,3.858,0.703,8.96,101.7733,3.824,4.954,25.77,0,109.7,13.52,4.59,282.2
"2009-01-12 01:06:00",533289,11.23,319.6,4.569,0.813,9.46,101.8044,3.904,4.981,25.32,0,109.7,13.52,4.67,281.6
"2009-01-12 01:06:30",533290,10.55,315,3.25,0.903,8.64,101.8355,3.983,5.055,25.45,0,109.7,13.52,4.75,277.0
"2009-01-12 01:07:00",533291,11.87,318,3.402,0.809,8.21,101.8548,4.032,5.113,26.44,0,109.7,13.52,4.80,280.0
"2009-01-12 01:07:30",533292,11.73,316.1,4.765,0.688,7.959,101.8488,4.017,5.127,27.14,0,109.7,13.52,4.78,278.1
"2009-01-12 01:08:00",533293,11.74,320.3,3.637,0.675,7.823,101.8321,3.975,5.089,27.66,0,109.7,13.52,4.74,282.3
"2009-01-12 01:08:30",533294,11.78,323.3,3.414,0.782,8.13,101.829,3.967,5.11,26.88,0,109.7,13.52,4.73,285.3
"2009-01-12 01:09:00",533295,11.86,323.9,3.291,0.684,8.15,101.8038,3.902,5.087,27.67,0,109.7,13.52,4.67,285.9
"2009-01-12 01:09:30",533296,11.61,323.6,4.119,0.802,8.53,101.7956,3.881,5.066,26.98,0,109.7,13.52,4.65,285.6
"2009-01-12 01:10:00",533297,10.8,317.5,3.852,0.712,8.51,101.7965,3.884,5.066,26.8,0,109.7,13.52,4.65,279.5
"2009-01-12 01:10:30",533298,11.35,319,3.738,0.792,8.65,101.7979,3.887,5.061,26.48,0,109.7,13.52,4.65,281.0
"2009-01-12 01:11:00",533299,11.16,318.5,3.635,0.687,8.29,101.797,3.885,5.071,27.11,0,109.7,13.51,4.65,280.5
"2009-01-12 01:11:30",533300,11.62,317.6,3.293,0.705,8.54,101.7962,3.883,5.054,27.14,0,109.7,13.51,4.65,279.6
"2009-01-12 01:12:00",533301,11.83,316.8,3.888,0.598,8.49,101.7944,3.878,5.084,26.8,0,109.7,13.51,4.64,278.8
"2009-01-12 01:12:30",533302,11.68,317.4,3.043,0.776,8.05,101.7962,3.883,5.071,27.41,0,109.7,13.51,4.65,279.4
"2009-01-12 01:13:00",533303,12.28,317.5,2.71,0.665,8.28,101.7953,3.881,5.069,27.77,0,109.7,13.51,4.65,279.5
"2009-01-12 01:13:30",533304,12.42,318.3,3.399,0.72,8.12,101.7942,3.878,5.059,27.86,0,109.7,13.51,4.64,280.3
"2009-01-12 01:14:00",533305,12.07,319.4,3.41,0.708,8.32,101.7851,3.854,5.081,28,0,109.7,13.51,4.62,281.4
"2009-01-12 01:14:30",533306,11.57,318.1,3.516,0.675,8.62,101.7786,3.838,5.057,27.59,0,109.7,13.51,4.60,280.1
"2009-01-12 01:15:00",533307,11.73,319.8,2.256,0.746,8.52,101.7848,3.854,5.054,27.49,0,109.7,13.51,4.62,281.8
"2009-01-12 01:15:30",533308,11.58,320.8,3.533,0.71,8.61,101.7859,3.857,5.042,27.36,0,109.7,13.51,4.62,282.8
"2009-01-12 01:16:00",533309,11.32,319.8,3.702,0.694,8.73,101.7918,3.872,5.072,26.69,0,109.7,13.51,4.64,281.8
"2009-01-12 01:16:30",533310,11.61,320.6,3.338,0.698,8.36,101.802,3.898,5.07,26.77,0,109.7,13.51,4.66,282.6
"2009-01-12 01:17:00",533311,11.72,315.1,3.559,0.658,7.991,101.7986,3.889,5.087,27.66,0,109.7,13.52,4.65,277.1
"2009-01-12 01:17:30",533312,12,315.1,4.216,0.718,7.862,101.7814,3.845,5.057,28.34,0,109.7,13.52,4.61,277.1
"2009-01-12 01:18:00",533313,12.53,317,3.882,0.862,8.44,101.759,3.788,5.049,27.82,0,109.7,13.52,4.55,279.0
"2009-01-12 01:18:30",533314,12.61,318.7,4.4,0.865,8.96,101.7658,3.805,5.019,26.76,0,109.7,13.52,4.57,280.7
"2009-01-12 01:19:00",533315,11.27,321.5,2.81,0.831,9.2,101.7902,3.867,5.059,26.21,0,109.7,13.52,4.63,283.5
"2009-01-12 01:19:30",533316,12.22,322,3.18,0.922,9.12,101.8165,3.935,5.063,25.55,0,109.7,13.52,4.70,284.0
"2009-01-12 01:20:00",533317,13.45,323,4.801,1.002,8.98,101.8385,3.991,5.105,25.67,0,109.7,13.52,4.76,285.0
"2009-01-12 01:20:30",533318,13.09,323.1,3.933,0.892,8.88,101.8623,4.052,5.137,25.95,0,109.7,13.52,4.82,285.1
"2009-01-12 01:21:00",533319,13.52,325.5,4.319,0.601,9.02,101.868,4.066,5.175,26.11,0,109.7,13.52,4.83,287.5
"2009-01-12 01:21:30",533320,12.88,323.3,3.684,0.718,8.87,101.8767,4.088,5.212,26.51,0,109.7,13.52,4.85,285.3
"2009-01-12 01:22:00",533321,12.58,324.5,3.285,0.727,9.08,101.8829,4.104,5.234,26.22,0,109.7,13.52,4.87,286.5
"2009-01-12 01:22:30",533322,12.15,317.9,4.374,0.655,8.84,101.8922,4.128,5.243,26.41,0,109.7,13.52,4.89,279.9
"2009-01-12 01:23:00",533323,12.42,316.9,3.409,0.566,8.92,101.8906,4.124,5.241,26.72,0,109.7,13.52,4.89,278.9
"2009-01-12 01:23:30",533324,11.76,317.2,3.793,0.707,8.51,101.8756,4.085,5.247,27.17,0,109.7,13.52,4.85,279.2
"2009-01-12 01:24:00",533325,11.55,318.2,4.22,0.791,8.35,101.8606,4.047,5.253,27.38,0,109.7,13.52,4.81,280.2
"2009-01-12 01:24:30",533326,11.55,318.4,4.492,0.902,8.42,101.8577,4.04,5.206,27.15,0,109.7,13.52,4.81,280.4
"2009-01-12 01:25:00",533327,11.51,315.5,4.463,0.725,8.71,101.8444,4.006,5.212,26.95,0,109.7,13.52,4.77,277.5
"2009-01-12 01:25:30",533328,11.67,313.4,4.433,0.61,8.42,101.8385,3.991,5.196,27.12,0,109.7,13.52,4.76,275.4
"2009-01-12 01:26:00",533329,11.18,314.7,4.035,0.849,8.24,101.8274,3.963,5.201,27.04,0,109.7,13.52,4.73,276.7
"2009-01-12 01:26:30",533330,11.84,313.6,3.823,0.716,8.32,101.8246,3.955,5.171,26.98,0,109.7,13.52,4.72,275.6
"2009-01-12 01:27:00",533331,11.4,315.9,4.183,0.601,8.62,101.8243,3.955,5.172,26.85,0,109.7,13.52,4.72,277.9
"2009-01-12 01:27:30",533332,11.12,316,5.018,0.765,8.57,101.8277,3.963,5.181,26.45,0,109.7,13.51,4.73,278.0
"2009-01-12 01:28:00",533333,11.57,322.2,3.019,0.767,8.32,101.8396,3.994,5.186,26.57,0,109.7,13.51,4.76,284.2
"2009-01-12 01:28:30",533334,11.57,320.5,3.298,0.685,8.23,101.8396,3.994,5.188,26.98,0,109.7,13.51,4.76,282.5
"2009-01-12 01:29:00",533335,11.64,321.7,3.469,0.511,8.5,101.8354,3.983,5.172,26.94,0,109.7,13.5,4.75,283.7
"2009-01-12 01:29:30",533336,11.56,318.7,3.368,0.739,8.57,101.8328,3.976,5.173,26.74,0,109.7,13.5,4.74,280.7
"2009-01-12 01:30:00",533337,11.78,317.1,4.836,0.672,8.4,101.8283,3.965,5.188,26.94,0,109.7,13.5,4.73,279.1
"2009-01-12 01:30:30",533338,11.67,319.8,3.765,0.729,8.7,101.8345,3.981,5.173,26.48,0,109.7,13.5,4.75,281.8
"2009-01-12 01:31:00",533339,11.8,320.6,4.239,0.611,8.7,101.8376,3.988,5.18,26.57,0,109.7,13.5,4.75,282.6
"2009-01-12 01:31:30",533340,12.17,325.5,3.931,0.795,8.74,101.8534,4.029,5.18,26.35,0,109.7,13.5,4.80,287.5
"2009-01-12 01:32:00",533341,12.31,323.4,5.083,0.783,8.96,101.8568,4.038,5.204,26.14,0,109.7,13.5,4.80,285.4
"2009-01-12 01:32:30",533342,12.15,318.2,4.581,0.855,9.05,101.8647,4.058,5.203,25.84,0,109.7,13.51,4.82,280.2
"2009-01-12 01:33:00",533343,12.13,322.9,4.353,0.734,9.22,101.8897,4.121,5.227,25.44,0,109.7,13.51,4.89,284.9
"2009-01-12 01:33:30",533344,12.44,318.8,4.484,0.65,9.2,101.8979,4.142,5.264,25.38,0,109.7,13.51,4.91,280.8
"2009-01-12 01:34:00",533345,11.91,317.9,3.764,0.738,8.99,101.9202,4.199,5.295,25.29,0,109.7,13.52,4.97,279.9
"2009-01-12 01:34:30",533346,12.54,320.3,3.94,0.801,8.97,101.9265,4.215,5.334,25.37,0,109.7,13.52,4.98,282.3
"2009-01-12 01:35:00",533347,12.92,320.4,4.653,0.71,9.07,101.9375,4.244,5.355,25.41,0,109.7,13.52,5.01,282.4
"2009-01-12 01:35:30",533348,13.14,314.9,5.305,0.694,8.99,101.9462,4.266,5.367,25.51,0,109.7,13.52,5.03,276.9
"2009-01-12 01:36:00",533349,12.77,321.8,3.557,0.805,9.1,101.9538,4.285,5.387,25.32,0,109.7,13.52,5.05,283.8
"2009-01-12 01:36:30",533350,12.15,324.1,4.028,1.087,9.06,101.9578,4.295,5.412,25.31,0,109.7,13.52,5.06,286.1
"2009-01-12 01:37:00",533351,12.82,320.5,3.568,0.571,9.19,101.9569,4.293,5.424,25.32,0,109.7,13.52,5.06,282.5
"2009-01-12 01:37:30",533352,13.23,324.1,4.357,0.603,9.11,101.9572,4.294,5.446,25.23,0,109.7,13.51,5.06,286.1
"2009-01-12 01:38:00",533353,13.19,324.1,3.845,0.681,9.16,101.9677,4.321,5.457,25.07,0,109.7,13.51,5.09,286.1
"2009-01-12 01:38:30",533354,12.41,323.1,4.141,0.775,9.23,101.9855,4.366,5.474,24.88,0,109.7,13.51,5.13,285.1
"2009-01-12 01:39:00",533355,11.85,322.2,4.133,0.531,9.3,101.99,4.378,5.485,24.91,0,109.7,13.51,5.15,284.2
"2009-01-12 01:39:30",533356,12.37,317.4,4.078,0.918,9.12,101.9883,4.373,5.513,24.83,0,109.7,13.51,5.14,279.4
"2009-01-12 01:40:00",533357,12.81,316.4,3.824,0.791,8.99,101.9894,4.376,5.538,25.01,0,109.7,13.51,5.14,278.4
"2009-01-12 01:40:30",533358,12.94,320.8,3.897,0.817,8.89,101.9914,4.381,5.545,25,0,109.7,13.51,5.15,282.8
"2009-01-12 01:41:00",533359,13.04,326.4,3.374,0.906,9.21,101.9948,4.39,5.555,24.99,0,109.7,13.51,5.16,288.4
"2009-01-12 01:41:30",533360,13.46,323.2,3.701,0.899,9.05,101.9936,4.387,5.551,25.06,0,109.7,13.51,5.15,285.2
"2009-01-12 01:42:00",533361,14.06,321,3.909,0.802,9.08,101.9902,4.378,5.573,25.4,0,109.7,13.51,5.15,283.0
"2009-01-12 01:42:30",533362,13.74,323.8,3.973,0.904,9.11,101.9863,4.368,5.55,25.59,0,109.7,13.51,5.14,285.8
"2009-01-12 01:43:00",533363,13.24,322.8,3.804,0.73,9.26,101.9863,4.368,5.545,25.64,0,109.7,13.51,5.14,284.8
"2009-01-12 01:43:30",533364,12.95,320.5,3.914,0.815,9.33,101.9848,4.364,5.544,25.66,0,109.7,13.5,5.13,282.5
"2009-01-12 01:44:00",533365,13.32,320.7,2.916,0.83,9.29,101.9831,4.36,5.548,25.63,0,109.7,13.5,5.13,282.7
"2009-01-12 01:44:30",533366,12.39,324.9,3.36,0.894,9.28,101.9828,4.359,5.536,25.27,0,109.7,13.5,5.13,286.9
"2009-01-12 01:45:00",533367,13.33,322.6,3.281,0.515,9.41,101.984,4.362,5.532,25.44,0,109.7,13.5,5.13,284.6
"2009-01-12 01:45:30",533368,13.28,323.3,3.994,0.755,9.37,101.9834,4.361,5.541,25.19,0,109.7,13.5,5.13,285.3
"2009-01-12 01:46:00",533369,12.99,323.6,3.595,0.798,9.38,101.9848,4.364,5.555,24.99,0,109.7,13.5,5.13,285.6
"2009-01-12 01:46:30",533370,12.87,322.4,3.752,0.879,9.37,101.9822,4.358,5.543,25,0,109.7,13.5,5.13,284.4
"2009-01-12 01:47:00",533371,12.86,321.1,3.774,0.775,9.42,101.9819,4.357,5.543,25.08,0,109.7,13.5,5.12,283.1
"2009-01-12 01:47:30",533372,13.71,325.6,5.115,0.52,9.41,101.9805,4.353,5.555,24.94,0,109.7,13.5,5.12,287.6
"2009-01-12 01:48:00",533373,13.31,324.5,3.079,0.773,9.28,101.9865,4.369,5.576,24.92,0,109.7,13.5,5.14,286.5
"2009-01-12 01:48:30",533374,13.9,325.4,3.643,0.742,9.28,101.9898,4.377,5.576,24.94,0,109.7,13.5,5.14,287.4
"2009-01-12 01:49:00",533375,14.03,321.5,2.96,0.857,9.2,101.9859,4.367,5.576,25.53,0,109.7,13.5,5.13,283.5
"2009-01-12 01:49:30",533376,13.77,322.3,4.028,0.575,9.21,101.9782,4.348,5.556,25.97,0,109.7,13.51,5.11,284.3